Temp
-25 -25 -25 -25 -24 -24 -24 -23 -23 -22 -21 -21 -21 -22 -22 -23 -23 -23 -23 -23 -22 -23 -23 -23 -23 -23 -23 -24 -24 -24 -24 -24 -25 -25 -25 -25 -25 -24 -24 -23 -23 -22 -22 -22 -22 -22 -22 -22 -21 -21 -21 -21 -21 -21
-27 -26 -26 -26 -25 -24 -24 -24 -23 -23 -23 -22 -22 -22 -22 -23 -23 -23 -23 -23 -23 -23 -24 -24 -23 -24 -24 -24 -24 -24 -25 -25 -26 -26 -26 -26 -25 -24 -24 -24 -24 -23 -23 -23 -22 -22 -22 -22 -21 -21 -21 -21 -21 -21
-27 -27 -26 -26 -26 -25 -25 -24 -24 -24 -23 -23 -23 -22 -23 -24 -24 -24 -24 -24 -24 -24 -24 -24 -24 -24 -24 -24 -25 -25 -26 -26 -26 -26 -26 -26 -26 -25 -24 -24 -24 -24 -24 -23 -22 -22 -22 -22 -21 -21 -21 -21 -21 -21
-28 -27 -27 -26 -26 -26 -25 -25 -24 -24 -24 -23 -23 -23 -24 -24 -25 -24 -24 -24 -24 -24 -24 -24 -25 -25 -25 -25 -25 -26 -26 -27 -27 -27 -27 -26 -26 -26 -25 -24 -24 -24 -23 -23 -23 -22 -22 -22 -22 -21 -22 -22 -22 -22
-28 -28 -27 -27 -26 -26 -26 -25 -25 -24 -24 -23 -24 -24 -25 -25 -25 -24 -24 -24 -24 -24 -25 -25 -25 -25 -25 -25 -26 -26 -27 -27 -27 -27 -27 -27 -27 -26 -26 -25 -24 -24 -23 -23 -23 -22 -22 -22 -22 -22 -22 -23 -23 -22
-28 -28 -27 -27 -27 -26 -26 -26 -25 -25 -24 -24 -25 -25 -26 -25 -25 -25 -25 -25 -25 -25 -25 -25 -25 -25 -25 -26 -26 -26 -27 -27 -27 -27 -27 -27 -27 -26 -26 -26 -25 -24 -24 -24 -23 -23 -23 -23 -23 -23 -23 -23 -23 -23
-28 -27 -27 -27 -26 -26 -26 -26 -26 -25 -25 -26 -26 -26 -26 -26 -25 -25 -25 -25 -25 -25 -26 -26 -25 -25 -25 -26 -26 -26 -27 -27 -27 -27 -27 -26 -26 -26 -26 -26 -26 -25 -25 -25 -24 -24 -24 -24 -24 -24 -24 -24 -24 -25
-28 -28 -27 -27 -27 -27 -26 -26 -26 -26 -26 -26 -26 -26 -26 -26 -26 -25 -26 -26 -26 -26 -26 -26 -26 -26 -26 -26 -26 -26 -27 -27 -26 -26 -26 -26 -26 -26 -26 -26 -26 -26 -26 -25 -25 -25 -25 -25 -25 -25 -25 -25 -25 -25
-28 -28 -27 -27 -27 -27 -27 -26 -26 -26 -26 -26 -26 -26 -26 -26 -26 -26 -26 -26 -26 -26 -26 -26 -26 -26 -26 -26 -26 -26 -26 -27 -26 -26 -26 -26 -26 -26 -26 -26 -27 -27 -26 -26 -26 -26 -26 -26 -26 -25 -25 -25 -26 -26
-27 -27 -27 -27 -27 -27 -27 -26 -26 -26 -26 -27 -27 -27 -26 -26 -26 -26 -26 -26 -26 -26 -26 -26 -27 -27 -27 -27 -26 -27 -27 -27 -27 -27 -27 -27 -27 -27 -27 -28 -28 -27 -27 -27 -27 -27 -27 -26 -26 -26 -26 -26 -26 -26
-28 -28 -28 -27 -27 -27 -27 -27 -27 -27 -27 -27 -27 -27 -27 -26 -26 -26 -26 -26 -27 -27 -27 -27 -27 -27 -27 -27 -27 -27 -28 -28 -28 -28 -28 -27 -28 -28 -28 -28 -28 -27 -27 -27 -27 -27 -27 -27 -27 -27 -26 -26 -26 -26
-28 -28 -28 -28 -28 -27 -27 -27 -27 -28 -27 -27 -27 -27 -27 -27 -27 -26 -26 -27 -27 -27 -27 -27 -28 -28 -27 -28 -28 -28 -28 -28 -28 -28 -28 -28 -28 -28 -28 -27 -27 -27 -27 -27 -27 -27 -27 -27 -27 -27 -27 -26 -26 -26
-29 -29 -28 -28 -28 -28 -28 -28 -28 -28 -28 -27 -27 -27 -27 -27 -27 -26 -27 -28 -28 -28 -28 -28 -28 -28 -28 -28 -28 -28 -28 -28 -28 -28 -28 -28 -28 -27 -27 -27 -27 -27 -27 -27 -27 -27 -27 -27 -27 -26 -26 -26 -26 -25
-30 -29 -29 -29 -29 -29 -28 -28 -28 -28 -28 -28 -28 -27 -27 -27 -27 -27 -28 -28 -28 -28 -28 -28 -28 -28 -28 -28 -28 -28 -28 -28 -28 -28 -28 -28 -27 -27 -27 -27 -27 -27 -27 -27 -27 -27 -26 -26 -26 -26 -26 -25 -25 -25
-30 -30 -30 -29 -29 -29 -29 -29 -29 -28 -28 -28 -28 -28 -28 -27 -28 -28 -28 -28 -28 -28 -28 -28 -28 -28 -28 -28 -28 -28 -28 -28 -28 -28 -27 -27 -27 -27 -27 -27 -27 -27 -27 -26 -26 -26 -26 -26 -26 -25 -25 -25 -25 -25
-31 -30 -30 -30 -30 -29 -29 -29 -29 -29 -29 -29 -29 -28 -28 -28 -28 -28 -29 -29 -29 -29 -29 -28 -28 -28 -28 -28 -28 -28 -28 -28 -27 -27 -27 -27 -27 -27 -27 -27 -27 -26 -26 -26 -26 -26 -26 -26 -25 -25 -25 -26 -26 -26
-31 -31 -30 -30 -30 -30 -30 -30 -30 -29 -29 -29 -29 -29 -29 -29 -29 -29 -29 -29 -29 -28 -28 -28 -28 -28 -28 -28 -28 -28 -28 -28 -27 -27 -27 -27 -27 -27 -27 -26 -26 -26 -26 -26 -26 -26 -26 -26 -26 -26 -26 -26 -26 -26
-31 -31 -31 -31 -31 -31 -31 -30 -30 -30 -30 -30 -30 -30 -29 -29 -29 -29 -29 -29 -29 -29 -28 -28 -28 -28 -28 -28 -28 -27 -27 -27 -27 -27 -27 -27 -27 -27 -26 -26 -26 -26 -26 -26 -26 -26 -26 -26 -27 -27 -27 -27 -27 -28
-31 -31 -31 -31 -31 -31 -31 -31 -30 -30 -30 -31 -30 -30 -30 -30 -30 -30 -29 -29 -29 -29 -28 -28 -28 -28 -28 -28 -27 -27 -27 -27 -27 -27 -27 -27 -27 -26 -26 -26 -26 -27 -27 -27 -27 -27 -27 -27 -27 -27 -27 -28 -28 -28
-32 -32 -31 -31 -31 -31 -31 -31 -31 -31 -31 -30 -30 -30 -30 -30 -30 -29 -29 -29 -29 -29 -29 -29 -28 -28 -28 -27 -27 -27 -27 -27 -27 -27 -27 -27 -26 -26 -27 -27 -27 -27 -27 -27 -27 -27 -28 -28 -28 -28 -28 -28 -29 -29
-32 -31 -31 -31 -31 -31 -31 -31 -31 -31 -31 -31 -31 -30 -30 -30 -30 -30 -29 -29 -29 -29 -29 -28 -28 -28 -28 -28 -27 -27 -27 -26 -26 -26 -26 -27 -27 -27 -27 -27 -27 -27 -27 -27 -28 -28 -28 -28 -28 -28 -28 -29 -29 -30
-31 -31 -31 -31 -32 -32 -32 -32 -31 -31 -31 -31 -30 -30 -30 -30 -30 -30 -29 -29 -29 -29 -28 -28 -28 -28 -28 -27 -27 -27 -27 -26 -26 -26 -27 -27 -27 -27 -27 -27 -27 -27 -28 -28 -28 -28 -28 -28 -28 -28 -29 -29 -30 -31
-31 -31 -31 -31 -31 -31 -31 -31 -31 -31 -30 -30 -30 -30 -30 -30 -30 -30 -29 -29 -29 -29 -28 -28 -28 -28 -28 -27 -27 -27 -27 -26 -26 -26 -26 -26 -27 -27 -27 -27 -27 -27 -28 -28 -28 -28 -28 -29 -29 -29 -30 -30 -31 -31
-31 -31 -31 -31 -31 -31 -31 -31 -30 -31 -31 -31 -30 -30 -30 -30 -30 -29 -29 -29 -29 -28 -28 -28 -28 -27 -27 -27 -27 -27 -26 -26 -26 -26 -27 -27 -27 -27 -27 -27 -27 -28 -28 -28 -28 -28 -29 -29 -29 -30 -30 -31 -31 -32
-31 -31 -31 -31 -31 -31 -31 -30 -30 -30 -31 -31 -30 -30 -30 -30 -29 -29 -29 -29 -29 -28 -28 -28 -28 -27 -27 -27 -27 -27 -27 -26 -26 -26 -27 -27 -27 -27 -27 -27 -27 -27 -28 -28 -28 -29 -29 -30 -30 -30 -31 -31 -32 -33
-31 -31 -30 -31 -31 -30 -30 -30 -30 -30 -30 -30 -30 -30 -30 -30 -29 -29 -29 -29 -29 -29 -28 -28 -27 -27 -27 -27 -26 -26 -26 -26 -26 -26 -27 -27 -27 -27 -28 -27 -28 -28 -28 -28 -29 -29 -30 -30 -30 -31 -31 -32 -33 -33
-31 -31 -31 -30 -30 -30 -30 -30 -30 -30 -30 -30 -29 -30 -30 -29 -29 -29 -29 -29 -29 -29 -29 -28 -28 -27 -27 -26 -26 -26 -26 -26 -26 -27 -27 -27 -27 -27 -28 -28 -28 -28 -29 -29 -29 -30 -30 -30 -31 -32 -32 -33 -33 -34
-30 -30 -30 -30 -30 -30 -30 -30 -30 -30 -30 -30 -29 -29 -29 -29 -29 -29 -29 -29 -29 -29 -29 -28 -27 -27 -26 -26 -26 -26 -26 -26 -27 -27 -27 -27 -27 -27 -28 -28 -28 -28 -29 -29 -30 -30 -30 -31 -31 -32 -33 -33 -34 -35
-29 -30 -29 -29 -29 -29 -29 -29 -30 -29 -29 -29 -29 -29 -29 -29 -29 -29 -29 -29 -29 -28 -28 -28 -27 -26 -26 -26 -26 -26 -26 -26 -27 -27 -27 -27 -27 -28 -28 -28 -28 -29 -29 -30 -30 -30 -31 -31 -32 -33 -33 -34 -35 -36
-29 -30 -29 -29 -29 -29 -29 -29 -29 -29 -29 -29 -29 -29 -29 -29 -29 -29 -29 -29 -29 -28 -27 -27 -26 -26 -26 -26 -26 -26 -26 -27 -27 -27 -27 -27 -28 -28 -28 -28 -29 -29 -29 -30 -30 -31 -31 -32 -33 -33 -34 -35 -36 -36
-29 -29 -29 -29 -29 -29 -29 -29 -29 -29 -29 -29 -29 -29 -29 -29 -29 -29 -28 -28 -28 -27 -27 -26 -26 -26 -26 -26 -26 -26 -26 -27 -27 -27 -27 -28 -28 -28 -29 -29 -29 -29 -30 -30 -31 -31 -32 -33 -33 -34 -35 -36 -36 -37
-29 -29 -29 -29 -29 -29 -29 -29 -29 -29 -29 -29 -29 -28 -28 -28 -28 -28 -27 -27 -27 -27 -26 -26 -26 -26 -26 -26 -26 -26 -27 -27 -27 -28 -28 -28 -28 -29 -29 -29 -29 -30 -30 -31 -31 -32 -32 -33 -34 -35 -36 -36 -37 -37
-29 -29 -29 -29 -29 -29 -29 -29 -29 -29 -28 -28 -28 -28 -27 -27 -27 -27 -27 -27 -26 -26 -26 -26 -26 -26 -26 -26 -26 -27 -27 -27 -28 -28 -28 -28 -28 -29 -29 -29 -30 -30 -31 -31 -32 -32 -33 -34 -35 -36 -36 -37 -37 -37
Height
5402 5409 5417 5425 5433 5441 5449 5456 5464 5472 5479 5488 5495 5503 5510 5518 5525 5530 5535 5539 5542 5544 5546 5548 5549 5549 5548 5547 5546 5543 5542 5539 5539 5540 5542 5544 5547 5548 5550 5551 5550 5551 5553 5555 5557 5558 5561 5561 5562 5563 5564 5563 5564 5565
5402 5408 5416 5424 5433 5440 5447 5455 5463 5471 5479 5487 5493 5501 5507 5514 5521 5526 5531 5534 5536 5540 5542 5544 5545 5543 5543 5541 5539 5537 5535 5533 5533 5535 5537 5539 5542 5544 5546 5548 5549 5551 5552 5554 5556 5558 5559 5560 5561 5562 5562 5563 5563 5563
5400 5407 5414 5422 5431 5438 5446 5453 5461 5468 5476 5484 5491 5498 5504 5511 5517 5523 5525 5529 5532 5535 5538 5539 5539 5538 5537 5535 5533 5531 5529 5528 5528 5530 5532 5534 5537 5540 5542 5543 5546 5548 5549 5551 5554 5555 5556 5558 5559 5559 5560 5560 5559 5559
5399 5405 5414 5421 5429 5436 5443 5450 5458 5466 5474 5481 5488 5495 5501 5507 5514 5517 5521 5525 5528 5531 5533 5534 5533 5533 5532 5530 5527 5525 5524 5524 5525 5526 5528 5530 5533 5536 5538 5540 5543 5545 5547 5548 5551 5552 5553 5554 5555 5556 5556 5556 5556 5556
5399 5405 5412 5420 5427 5434 5441 5449 5456 5464 5471 5479 5485 5492 5498 5504 5509 5513 5517 5521 5524 5528 5529 5529 5529 5528 5527 5524 5523 5521 5521 5522 5523 5524 5525 5527 5529 5532 5535 5537 5539 5541 5544 5546 5546 5548 5549 5550 5551 5551 5551 5551 5551 5551
5397 5404 5411 5418 5425 5433 5440 5447 5454 5462 5469 5475 5482 5488 5495 5502 5506 5510 5514 5517 5519 5522 5524 5525 5525 5524 5523 5521 5521 5520 5520 5521 5521 5521 5522 5524 5527 5530 5532 5534 5536 5538 5539 5541 5543 5544 5545 5545 5546 5546 5546 5545 5545 5546
5396 5402 5409 5416 5424 5431 5438 5445 5453 5459 5466 5473 5480 5487 5493 5498 5503 5507 5511 5514 5516 5519 5520 5520 5521 5520 5520 5520 5519 5519 5519 5520 5520 5520 5520 5521 5524 5526 5528 5530 5532 5534 5536 5537 5539 5540 5541 5541 5542 5543 5542 5541 5541 5541
5394 5401 5407 5414 5422 5430 5437 5444 5451 5458 5465 5472 5478 5484 5489 5494 5499 5504 5507 5510 5513 5515 5516 5517 5517 5518 5518 5518 5518 5518 5519 5519 5519 5519 5519 5519 5521 5523 5525 5527 5529 5530 5532 5533 5534 5536 5536 5536 5537 5537 5538 5537 5537 5536
5394 5401 5408 5415 5422 5430 5437 5444 5450 5457 5465 5470 5476 5482 5486 5491 5495 5499 5503 5507 5508 5512 5512 5514 5514 5515 5516 5516 5517 5517 5517 5516 5517 5517 5517 5518 5519 5520 5522 5524 5526 5527 5528 5528 5529 5530 5530 5531 5531 5531 5532 5532 5531 5530
5392 5401 5408 5415 5422 5429 5436 5442 5449 5456 5462 5468 5474 5478 5483 5488 5493 5497 5500 5502 5505 5507 5509 5510 5511 5512 5514 5514 5514 5515 5514 5514 5514 5515 5514 5515 5517 5519 5521 5522 5523 5524 5524 5524 5525 5526 5526 5526 5526 5527 5527 5526 5525 5523
5389 5397 5405 5412 5419 5426 5432 5440 5447 5454 5459 5465 5471 5476 5481 5485 5489 5492 5495 5499 5503 5504 5506 5507 5508 5509 5511 5512 5513 5513 5513 5513 5513 5513 5514 5514 5516 5518 5519 5521 5523 5523 5523 5523 5523 5523 5523 5523 5522 5522 5521 5519 5517 5515
5386 5394 5401 5409 5417 5424 5430 5437 5445 5451 5456 5461 5467 5472 5477 5481 5485 5489 5493 5497 5499 5500 5502 5504 5506 5507 5509 5510 5511 5512 5512 5513 5513 5513 5514 5515 5517 5518 5519 5521 5521 5521 5521 5521 5521 5520 5520 5519 5518 5517 5515 5513 5511 5509
5382 5390 5398 5405 5413 5420 5427 5434 5440 5445 5451 5457 5463 5468 5473 5478 5482 5487 5492 5494 5496 5497 5499 5502 5504 5505 5507 5509 5509 5510 5511 5511 5513 5514 5515 5517 5518 5518 5519 5520 5520 5519 5519 5518 5518 5517 5516 5515 5514 5512 5510 5507 5505 5502
5378 5386 5394 5402 5409 5416 5423 5430 5437 5442 5448 5454 5460 5465 5470 5476 5481 5486 5488 5490 5492 5494 5496 5500 5501 5503 5505 5507 5508 5509 5510 5511 5512 5514 5516 5517 5517 5518 5518 5517 5517 5516 5515 5515 5514 5513 5512 5511 5509 5507 5504 5501 5498 5494
5375 5383 5390 5397 5405 5412 5419 5426 5432 5438 5444 5451 5457 5463 5468 5473 5477 5481 5484 5488 5490 5493 5495 5497 5499 5501 5503 5505 5507 5508 5509 5510 5512 5514 5515 5515 5515 5515 5515 5514 5514 5513 5513 5512 5511 5510 5509 5507 5504 5501 5497 5494 5489 5485
5372 5379 5387 5394 5402 5409 5416 5422 5428 5435 5441 5449 5455 5460 5465 5470 5474 5479 5482 5485 5488 5491 5493 5495 5497 5499 5501 5503 5506 5507 5509 5511 5513 5513 5514 5514 5513 5513 5512 5512 5512 5511 5511 5510 5508 5506 5504 5501 5497 5493 5489 5484 5479 5473
5373 5381 5386 5393 5400 5406 5412 5419 5425 5431 5438 5445 5451 5457 5463 5468 5472 5476 5480 5483 5486 5489 5491 5493 5496 5497 5500 5502 5505 5507 5509 5510 5511 5512 5512 5512 5511 5511 5510 5510 5510 5509 5508 5506 5504 5501 5497 5493 5489 5484 5479 5474 5468 5461
5373 5380 5387 5393 5400 5405 5410 5416 5422 5429 5436 5443 5449 5455 5461 5466 5471 5475 5479 5482 5485 5487 5490 5492 5495 5497 5500 5503 5505 5507 5508 5509 5510 5511 5510 5510 5509 5509 5508 5508 5507 5506 5504 5501 5498 5494 5490 5486 5481 5475 5469 5462 5455 5448
5374 5382 5388 5394 5399 5405 5410 5415 5421 5428 5435 5442 5449 5454 5459 5465 5470 5474 5478 5481 5483 5486 5489 5492 5494 5496 5499 5501 5503 5505 5506 5507 5508 5508 5508 5507 5507 5506 5506 5505 5504 5501 5499 5495 5492 5487 5482 5477 5471 5465 5458 5450 5444 5436
5373 5380 5387 5393 5399 5404 5409 5415 5420 5428 5435 5443 5448 5455 5459 5464 5469 5473 5477 5480 5483 5485 5488 5490 5492 5494 5496 5499 5501 5502 5503 5504 5505 5505 5505 5504 5504 5503 5502 5501 5499 5496 5493 5489 5484 5479 5473 5467 5460 5453 5445 5437 5429 5421
5373 5381 5388 5394 5399 5404 5409 5415 5423 5430 5437 5442 5448 5455 5460 5464 5468 5472 5476 5479 5482 5484 5487 5489 5491 5493 5494 5496 5498 5499 5500 5500 5501 5501 5501 5500 5500 5499 5498 5496 5493 5490 5486 5481 5476 5470 5464 5457 5449 5441 5433 5424 5416 5407
5378 5384 5390 5393 5399 5404 5410 5418 5426 5434 5440 5445 5450 5455 5459 5464 5468 5471 5475 5477 5480 5483 5485 5487 5489 5491 5492 5493 5495 5496 5496 5497 5497 5497 5497 5496 5496 5494 5492 5490 5487 5483 5479 5474 5467 5461 5453 5445 5437 5428 5419 5411 5401 5391
5381 5386 5391 5396 5401 5408 5415 5421 5428 5434 5439 5445 5450 5455 5460 5464 5467 5470 5473 5476 5479 5481 5483 5485 5487 5488 5489 5491 5492 5492 5492 5492 5493 5493 5492 5491 5490 5489 5486 5483 5480 5476 5470 5464 5458 5450 5442 5433 5424 5414 5405 5395 5385 5375
5385 5390 5395 5400 5406 5412 5419 5424 5429 5434 5438 5444 5450 5455 5459 5462 5465 5468 5471 5474 5476 5477 5480 5481 5483 5484 5486 5487 5488 5488 5488 5488 5488 5488 5487 5486 5485 5483 5480 5476 5472 5467 5461 5454 5447 5439 5430 5421 5411 5401 5392 5382 5372 5361
5392 5396 5400 5405 5410 5416 5423 5428 5432 5435 5440 5445 5450 5454 5457 5460 5462 5465 5468 5471 5472 5474 5476 5477 5478 5480 5481 5483 5484 5484 5484 5484 5484 5483 5482 5481 5479 5476 5473 5468 5463 5458 5451 5444 5436 5427 5418 5409 5399 5389 5379 5369 5357 5346
5397 5402 5406 5409 5414 5419 5424 5429 5433 5437 5441 5444 5448 5451 5454 5456 5459 5463 5466 5466 5468 5470 5471 5472 5473 5475 5476 5477 5478 5478 5479 5479 5478 5478 5477 5475 5472 5469 5465 5459 5454 5447 5440 5433 5425 5416 5407 5396 5386 5376 5365 5355 5344 5332
5404 5408 5411 5414 5418 5421 5425 5428 5432 5435 5438 5441 5445 5448 5449 5452 5456 5461 5463 5462 5463 5464 5465 5466 5467 5469 5470 5471 5473 5474 5474 5473 5473 5472 5470 5468 5465 5461 5457 5451 5444 5438 5430 5422 5413 5404 5393 5383 5373 5363 5351 5340 5330 5318
5408 5411 5415 5418 5420 5423 5425 5428 5431 5433 5436 5439 5442 5444 5446 5450 5455 5457 5457 5457 5456 5457 5458 5461 5462 5463 5464 5467 5469 5469 5468 5468 5467 5466 5464 5461 5458 5453 5448 5442 5435 5428 5419 5411 5401 5391 5382 5372 5361 5350 5339 5327 5315 5304
5412 5415 5417 5419 5421 5423 5425 5427 5429 5431 5434 5435 5438 5439 5442 5445 5447 5449 5450 5450 5450 5452 5453 5455 5457 5459 5461 5463 5464 5463 5463 5462 5461 5459 5457 5453 5449 5444 5438 5431 5424 5417 5408 5399 5389 5379 5369 5359 5349 5337 5326 5313 5302 5293
5413 5413 5416 5418 5419 5420 5421 5422 5424 5427 5429 5431 5433 5435 5437 5439 5441 5444 5445 5445 5446 5448 5450 5452 5454 5456 5457 5457 5458 5458 5458 5457 5455 5452 5448 5444 5439 5434 5428 5421 5413 5405 5397 5387 5377 5368 5357 5346 5335 5325 5313 5301 5291 5282
5412 5412 5414 5416 5417 5417 5418 5419 5421 5423 5425 5427 5429 5431 5434 5436 5438 5439 5441 5442 5444 5446 5448 5450 5451 5451 5452 5453 5453 5453 5452 5450 5447 5444 5440 5435 5429 5423 5417 5410 5402 5395 5385 5376 5366 5356 5346 5335 5324 5312 5301 5292 5284 5275
5409 5411 5413 5414 5415 5416 5416 5417 5418 5420 5422 5424 5426 5428 5430 5432 5434 5436 5438 5440 5442 5443 5444 5445 5447 5448 5448 5448 5448 5446 5444 5442 5439 5435 5430 5425 5420 5414 5407 5400 5392 5383 5374 5365 5356 5346 5335 5324 5313 5302 5293 5285 5277 5269
5406 5408 5410 5411 5412 5413 5414 5415 5416 5418 5419 5421 5423 5425 5428 5430 5432 5434 5435 5437 5438 5440 5441 5442 5443 5443 5443 5442 5441 5439 5436 5434 5430 5426 5421 5416 5410 5404 5397 5389 5381 5372 5364 5355 5345 5334 5324 5312 5302 5293 5285 5278 5271 5263
Wind_Speed
23 22 21 19 19 21 30 38 43 44 42 40 37 36 35 33 29 26 25 23 21 18 18 20 21 22 22 24 26 28 23 19 17 15 16 21 16 13 13 10 16 18 18 16 15 13 8 4 3 5 6 7 8 11
22 25 26 27 29 32 34 38 37 35 35 36 37 38 33 30 28 26 24 23 20 17 20 20 21 22 22 25 26 25 20 16 13 13 21 25 18 19 14 13 14 14 14 13 11 9 8 6 2 2 4 8 10 13
24 26 28 30 31 30 31 34 35 36 37 38 38 36 33 29 27 26 24 21 17 18 20 20 21 21 22 24 24 20 14 12 12 14 21 27 21 21 16 15 15 14 14 15 13 12 9 7 6 6 6 9 11 14
28 27 28 29 30 31 32 33 34 35 37 38 36 33 30 27 26 24 21 19 17 18 19 20 19 18 21 22 18 13 11 9 9 12 17 22 25 19 22 18 17 15 15 17 17 15 13 11 9 8 10 11 14 16
30 29 27 29 32 30 29 29 31 31 34 35 33 30 27 25 23 22 20 18 18 18 17 17 17 17 19 16 11 8 6 5 8 10 14 17 18 21 21 22 19 18 20 19 19 18 15 13 10 10 11 13 16 17
31 30 30 29 29 29 30 30 30 32 33 33 31 28 26 25 23 21 19 19 19 17 16 13 14 15 14 9 6 6 5 4 7 10 12 16 16 17 21 22 22 22 21 19 21 21 19 18 15 15 16 16 16 18
33 31 29 29 29 30 31 34 36 35 35 31 29 27 27 24 21 21 20 18 17 16 12 13 12 12 9 6 6 6 3 3 3 3 7 13 15 15 18 20 23 22 21 20 20 20 20 19 19 18 16 18 18 16
31 29 29 27 27 31 34 38 36 34 31 31 31 28 25 22 21 20 18 17 17 12 11 11 11 9 7 5 5 5 4 5 4 4 4 5 11 16 17 16 17 20 22 21 19 18 17 19 19 18 17 18 19 20
36 34 34 34 33 33 33 33 33 32 31 28 26 25 24 22 22 19 19 19 14 11 12 11 12 9 6 5 7 9 11 11 10 8 6 7 9 12 15 14 14 14 15 15 16 18 19 20 20 21 22 23 23 24
37 38 38 37 35 34 33 33 32 31 29 27 25 25 25 23 20 19 20 17 13 12 14 14 11 8 6 6 7 6 5 4 5 4 5 8 9 10 10 8 8 8 7 7 8 10 13 17 19 21 23 23 24 24
37 35 34 33 33 31 30 30 30 30 27 26 25 24 23 23 23 23 20 17 12 13 15 14 11 8 6 5 4 2 1 1 1 1 1 5 7 7 7 7 6 3 1 1 3 6 9 12 15 16 17 18 19 19
38 37 36 35 34 33 32 33 31 28 28 28 27 26 26 24 23 22 19 15 13 17 17 13 10 9 8 8 4 4 2 3 7 4 7 9 9 9 8 6 2 2 5 7 10 12 13 14 14 15 17 18 20 22
41 40 39 38 37 36 36 35 34 33 31 31 30 28 26 25 24 22 15 11 14 16 17 13 12 10 12 11 9 7 8 5 9 8 6 7 5 3 3 4 6 7 9 11 11 10 10 12 14 17 19 21 24 26
41 39 39 38 37 37 36 34 34 33 32 31 30 28 26 24 22 14 14 17 19 20 18 14 12 10 13 10 9 8 5 11 9 8 7 5 4 3 5 7 8 8 6 6 7 9 12 15 17 20 23 26 29 32
37 38 38 37 36 36 36 35 35 35 34 32 31 29 26 24 20 16 17 18 20 16 15 14 12 9 12 12 9 8 9 10 10 10 8 5 6 8 8 9 6 6 7 9 11 13 16 19 22 26 29 32 35 38
35 35 34 33 33 33 32 32 32 32 31 29 28 26 25 23 19 20 17 16 15 14 14 13 12 9 11 12 13 12 13 10 7 6 5 6 8 9 6 5 6 7 9 11 13 16 19 23 27 31 33 36 39 42
32 31 31 31 29 29 29 29 29 30 30 29 24 25 21 21 24 24 20 15 13 12 13 13 11 13 12 15 16 17 14 11 7 4 5 7 7 5 5 5 6 9 11 14 18 22 25 29 32 36 38 40 42 43
34 31 29 27 26 25 26 28 29 28 26 28 29 25 24 26 25 23 17 14 12 12 14 13 10 14 15 13 15 16 11 10 8 7 6 8 6 6 5 6 9 12 16 19 23 27 30 34 36 38 41 42 43 45
34 31 28 26 26 26 27 30 31 33 36 38 32 26 26 27 24 19 16 14 14 14 13 11 9 14 18 16 14 13 11 11 10 8 8 8 7 7 8 10 13 16 20 24 28 32 35 37 40 42 44 45 46 49
35 34 30 29 27 27 29 33 36 37 41 35 27 20 26 25 22 18 16 14 15 14 14 11 10 12 15 16 15 14 13 12 10 10 9 9 9 10 11 14 18 21 24 28 32 36 39 42 45 47 48 49 50 53
36 34 31 27 26 28 31 33 32 38 42 34 23 29 18 24 22 19 16 16 16 13 11 13 10 9 8 10 12 13 13 12 10 10 11 11 11 12 15 18 21 24 27 31 37 42 46 49 51 53 53 52 54 55
33 30 28 28 29 31 31 32 37 35 32 28 27 18 19 22 21 19 17 16 16 14 13 11 9 9 8 9 9 11 12 12 11 11 12 12 13 15 18 21 23 27 32 37 41 46 51 54 56 57 56 57 58 60
29 27 26 28 30 31 35 41 43 39 34 29 25 22 24 23 19 18 17 15 14 14 14 13 12 11 11 9 10 11 13 12 12 12 13 13 15 18 21 24 28 33 38 42 45 50 55 59 61 60 59 60 62 64
26 26 27 27 28 33 44 46 45 35 25 26 28 27 21 18 17 18 16 14 15 16 16 16 17 16 15 14 12 15 15 13 12 14 14 15 18 21 24 29 33 38 43 48 50 55 59 62 64 61 62 63 65 66
22 21 21 22 25 30 39 45 37 32 28 25 24 22 19 18 19 18 15 15 16 16 17 18 20 19 19 17 16 16 15 14 14 15 16 18 22 25 29 34 38 43 48 51 55 60 62 65 63 63 64 66 67 68
21 21 21 22 23 25 27 30 36 38 34 30 27 23 22 22 21 18 16 15 15 16 19 20 21 19 20 19 19 19 16 15 16 16 18 22 25 29 34 38 43 47 52 55 59 62 65 64 64 65 67 68 69 70
21 20 19 18 18 18 19 20 22 24 25 24 23 24 27 24 20 17 16 16 18 20 20 22 21 20 21 22 20 16 17 16 16 19 23 26 30 34 37 42 46 51 55 58 62 66 65 65 65 68 69 70 71 70
20 16 13 14 16 16 17 18 19 19 20 21 24 26 25 20 13 13 16 18 22 25 24 19 18 21 22 19 16 15 17 18 21 23 26 30 34 38 41 45 50 54 58 62 66 66 64 65 67 69 70 72 71 62
9 6 3 7 17 17 16 17 18 20 21 22 23 25 25 24 23 23 22 23 25 24 19 18 19 20 18 15 15 18 20 21 22 26 30 34 38 42 46 49 53 58 61 65 66 64 65 67 69 70 72 71 62 55
1 1 3 6 5 8 14 18 22 22 21 22 21 19 19 20 21 21 22 23 22 18 18 18 19 17 17 18 19 20 21 23 27 31 34 38 42 46 49 53 57 60 64 65 63 63 66 69 70 72 71 61 55 51
4 4 5 7 9 8 10 13 17 19 19 19 19 19 20 19 19 20 19 19 19 18 17 17 17 18 19 20 20 21 23 27 30 34 38 41 45 49 52 55 59 62 64 62 62 65 67 69 72 70 60 53 49 45
9 9 10 9 11 11 10 13 16 17 18 18 18 17 17 17 18 18 17 17 16 17 18 19 18 18 19 20 21 24 27 30 34 38 41 45 49 51 54 57 61 62 60 60 64 66 68 71 68 57 51 47 43 43
9 11 12 11 10 10 9 10 12 13 13 13 14 14 15 16 15 15 15 15 17 16 16 17 18 19 20 22 25 28 32 35 38 41 45 48 49 53 56 60 59 58 59 62 64 67 70 65 55 50 46 42 41 43
Wind_Direction
179 182 192 197 200 208 206 203 200 198 197 196 191 191 194 192 198 205 211 219 226 230 246 262 269 275 280 287 292 298 300 290 274 255 223 207 203 208 218 215 172 168 170 177 179 180 187 211 242 252 268 266 266 262
189 194 198 206 206 207 207 203 198 196 194 196 194 197 196 195 200 206 210 217 223 236 251 262 269 276 288 292 297 300 291 276 263 238 220 211 206 203 215 221 200 183 174 174 177 181 178 193 248 258 292 277 271 273
188 190 190 192 198 201 200 196 195 197 197 198 200 200 197 198 199 205 208 212 227 242 253 262 270 285 294 298 302 294 285 277 257 234 222 224 227 206 203 219 222 222 214 211 199 194 203 232 264 275 289 288 278 274
186 190 189 192 194 193 194 194 196 199 200 202 202 201 197 194 195 203 205 218 231 245 256 268 281 293 296 301 298 296 292 266 241 226 226 230 238 219 210 219 226 227 235 234 229 226 226 237 251 266 284 281 275 273
189 192 191 187 190 190 192 192 194 197 201 201 198 193 189 188 194 199 211 224 236 246 260 276 289 296 303 303 294 289 280 254 251 239 232 225 235 237 222 216 225 238 239 242 242 241 240 249 255 269 279 282 282 277
193 193 193 193 192 190 188 190 195 197 196 191 189 182 183 186 198 208 214 225 238 252 265 284 289 297 305 296 277 266 250 254 259 245 232 220 224 234 229 230 227 235 245 248 242 243 247 252 257 264 272 274 274 278
197 192 190 191 191 193 190 187 185 182 181 179 177 181 187 196 203 210 219 231 240 250 270 281 284 301 290 266 262 258 245 295 289 249 235 222 218 226 234 237 238 245 250 253 254 254 254 255 259 261 263 268 272 275
190 185 183 184 190 195 191 185 182 177 178 180 184 189 193 200 210 219 226 236 242 256 270 273 277 285 275 256 240 230 248 281 283 269 249 216 213 217 225 233 244 253 258 260 260 264 264 266 266 267 268 269 274 276
192 189 186 184 181 180 181 180 179 182 183 185 190 194 202 209 215 220 226 232 242 250 259 263 261 259 242 238 248 261 269 268 267 262 255 227 216 212 223 233 242 250 257 260 258 254 254 258 262 266 268 272 275 278
192 192 189 188 187 187 186 188 187 190 191 196 201 206 211 215 220 223 227 236 244 253 252 245 244 244 244 260 278 285 291 275 258 266 238 220 214 215 226 237 251 265 270 268 260 261 266 269 272 274 274 276 279 283
200 200 199 198 197 197 197 199 199 202 203 207 211 213 215 217 221 223 230 239 243 240 240 233 230 232 233 225 187 206 227 268 127 189 205 171 153 160 158 146 146 157 175 268 286 284 279 281 282 281 282 284 286 290
204 205 205 204 204 205 205 207 208 208 208 210 213 214 217 218 220 224 232 236 230 221 226 219 218 223 214 181 185 202 269 291 190 195 135 126 130 137 138 140 148 279 292 298 298 284 277 278 282 285 287 290 292 293
206 207 208 208 209 209 209 209 210 211 210 211 211 212 212 215 222 224 227 209 206 210 219 212 216 217 201 193 215 250 293 212 196 172 156 144 145 167 206 256 299 298 293 287 281 278 277 283 290 296 298 299 297 295
204 205 207 207 207 208 207 207 208 211 211 211 212 214 213 217 219 218 195 198 206 208 211 206 214 215 207 214 240 250 201 169 173 179 182 201 241 247 280 292 303 294 280 288 299 308 311 311 311 307 303 302 301 300
203 205 206 208 210 210 209 209 211 211 212 214 214 214 216 217 214 194 190 200 210 210 206 206 206 212 209 216 217 190 184 186 185 185 208 248 282 299 305 308 308 317 322 326 324 319 313 311 311 310 308 306 304 303
193 196 200 202 205 207 209 209 210 212 213 213 215 215 214 213 196 182 183 198 202 202 202 206 204 210 201 200 182 169 159 154 174 202 246 282 300 303 300 296 313 320 322 320 318 317 317 314 311 309 309 309 310 308
184 187 191 193 194 197 200 202 205 207 208 205 204 212 208 191 185 179 183 190 203 205 202 199 202 197 188 179 177 174 176 184 205 260 274 303 305 291 301 308 314 320 317 316 317 317 315 313 313 314 315 314 310 307
187 185 185 186 188 190 193 194 193 191 189 183 183 182 178 182 182 181 182 188 190 191 190 194 199 191 188 188 194 196 206 221 242 270 286 311 298 302 299 302 310 315 318 318 317 318 316 317 318 318 318 317 313 311
189 187 183 179 181 184 188 187 183 178 176 167 166 163 174 178 177 179 188 184 185 182 181 188 193 193 198 205 208 214 229 244 248 261 287 299 296 290 289 303 313 316 317 319 319 320 320 321 323 323 320 318 317 315
181 183 182 182 182 185 187 188 184 180 169 159 154 172 179 179 182 187 188 187 183 181 190 191 182 184 198 210 221 232 242 245 255 267 286 290 289 288 298 308 313 317 320 323 325 326 327 326 326 326 324 321 319 317
178 178 179 181 183 183 184 184 180 174 169 167 157 168 175 176 180 187 189 191 186 182 180 191 181 179 184 207 220 233 240 244 255 265 282 287 289 297 305 309 316 321 325 328 329 331 329 327 328 327 324 322 320 320
171 176 182 182 178 181 178 172 168 165 171 174 170 176 178 181 193 201 201 199 194 192 192 190 195 201 202 210 220 232 240 246 253 269 283 288 290 298 304 310 317 322 324 323 326 328 328 327 328 326 324 324 323 322
170 178 181 181 177 172 167 162 162 159 162 163 174 171 177 183 193 205 208 206 203 208 210 213 218 220 225 233 234 240 245 250 258 277 287 289 296 300 306 313 318 322 322 323 323 324 326 327 328 326 325 325 325 325
166 170 172 170 168 167 166 165 164 160 154 170 177 185 189 198 209 215 214 212 215 220 222 228 231 237 240 241 247 246 248 251 266 280 283 288 296 303 309 314 318 319 321 323 324 324 325 326 327 326 326 325 326 326
155 162 164 164 168 171 177 180 179 181 186 192 196 203 211 219 218 215 212 222 227 234 238 243 240 244 246 247 246 253 250 254 271 276 280 290 298 303 308 313 317 319 321 323 324 325 325 325 326 325 325 326 326 326
130 137 143 152 162 168 175 184 195 203 208 213 217 220 221 219 216 215 207 219 232 242 247 246 247 245 240 242 245 250 251 266 273 279 286 292 300 305 311 315 317 319 321 323 323 324 324 325 325 326 327 327 327 327
125 132 139 145 155 168 178 185 193 200 205 210 207 207 212 218 221 216 217 245 257 258 253 250 249 238 232 234 243 248 258 268 275 280 287 297 303 308 312 315 317 319 320 321 323 324 325 325 325 326 327 327 327 327
120 122 136 156 165 171 179 189 196 202 206 209 210 215 223 235 233 230 236 247 255 257 256 253 237 224 228 237 241 255 263 267 274 285 295 301 305 309 312 315 317 319 320 321 323 324 324 325 326 327 327 328 327 327
102 90 91 182 200 209 217 217 217 215 216 220 226 233 239 237 227 229 237 247 251 254 249 227 216 222 229 240 249 255 262 273 283 291 297 302 306 310 313 316 317 318 320 322 323 323 324 325 327 328 328 328 328 328
127 244 277 209 243 230 219 221 219 218 221 222 224 223 221 220 224 234 239 238 240 232 214 211 214 227 238 245 254 262 271 281 287 293 300 304 307 310 313 315 317 319 320 321 322 324 325 326 327 328 328 329 329 330
258 229 227 228 227 249 219 210 208 210 214 216 218 223 227 227 225 224 228 226 221 214 212 221 230 238 247 255 262 271 278 285 292 297 301 305 309 311 313 315 317 319 320 321 323 324 326 327 328 328 329 329 330 331
254 230 221 224 228 238 223 211 209 208 210 213 215 216 215 216 218 214 207 205 209 218 225 233 243 253 262 268 273 279 286 290 294 298 302 306 309 311 313 314 317 319 320 322 323 326 326 327 328 328 330 331 332 333
224 218 224 229 223 212 213 211 207 206 208 205 200 196 197 196 197 203 210 219 229 236 245 252 259 266 270 275 279 283 288 292 296 299 302 306 308 311 313 315 318 319 321 323 325 326 326 328 329 330 332 333 334 336